[[{"header":{"parameterUnit":"m.s-1","parameterCategory":1,"la1":30.2991,"la2":30.254,"lo1":-89.0895,"lo2":-89.0444,"dy":0.0017,"dx":0.0017,"nx":28,"ny":28,"refTime":"2024-03-14T09:00:00:Z","depth":0,"parameterNumber":2,"parameterNumberName":"U-component_of_WINDS"},"data":[0,0,0,0,0,0,0,0,0,0,0,0,0,0,0,0,0,0,0,0,0,0,0,0,0,0,0,0,0,0,0,0,0,0,0,0,0,0,0,0,0,0,0,0,0,0,0,0,0,0,0,0,0,0,0,0,0,0,-4.789,-4.7892,0,-4.8033,-4.8035,-4.8036,-4.8035,-4.8033,-4.8031,-4.8029,-4.8172,-4.8177,-4.8182,0,0,0,0,0,0,0,0,0,0,0,0,0,-4.7613,-4.7618,-4.789,-4.7892,-4.7894,-4.8033,-4.8035,-4.8037,-4.8035,-4.8033,-4.8031,-4.8028,-4.817,-4.8176,-4.8183,0,0,0,0,0,0,0,0,0,0,0,0,0,-4.7742,-4.762,-4.789,-4.791,-4.7913,-4.8032,-4.8035,-4.8037,-4.8036,-4.8033,-4.803,-4.8027,-4.8168,-4.8176,-4.8184,-4.8291,0,0,-4.8209,-4.8213,0,0,0,0,0,0,0,0,-4.7735,-4.7752,-4.7905,-4.7909,-4.7912,-4.8013,-4.7989,-4.8122,-4.8036,-4.7989,-4.8029,-4.8026,-4.8121,-4.8133,-4.8166,-4.8298,-4.8304,-4.821,-4.8215,-4.8219,-4.8221,0,0,0,0,0,0,0,-4.7726,-4.7746,-4.7946,-4.7907,-4.7912,-4.7911,-4.7926,-4.8014,-4.8069,-4.7993,-4.7993,-4.801,-4.8122,-4.8158,-4.8169,-4.8306,-4.821,-4.8217,-4.8222,-4.8225,-4.8533,-4.8536,0,0,0,0,0,0,-4.7713,-4.7739,-4.7942,-4.7951,-4.7815,-4.7918,-4.7935,-4.7984,-4.8068,-4.8078,-4.8013,-4.801,-4.8145,-4.8159,-4.8174,-4.8304,-4.8218,-4.8226,-4.8231,-4.853,-4.8534,-4.8537,0,0,0,0,0,0,-4.7707,-4.7731,-4.7936,-4.7845,-4.7871,-4.7926,-4.798,-4.7988,-4.8023,-4.8083,-4.8092,-4.8039,-4.8143,-4.8162,-4.8262,-4.8309,-4.823,-4.8238,-4.8526,-4.8531,-4.8535,-4.8565,0,0,0,0,0,0,-4.7699,-4.7729,-4.7771,-4.7846,-4.7876,-4.8023,-4.7983,-4.7993,-4.8038,-4.8036,-4.811,-4.8119,-4.8143,-4.825,-4.827,-4.8319,-4.8244,-4.8522,-4.8528,-4.8534,-4.856,-4.857,-4.8579,0,0,0,0,0,-4.7689,-4.7773,-4.7773,-4.7798,-4.793,-4.8025,-4.8042,-4.8068,-4.8042,-4.8084,-4.8122,-4.8117,-4.8301,-4.826,-4.8283,-4.8335,-4.8519,-4.8526,-4.8533,-4.8556,-4.8568,-4.8579,0,0,0,0,0,0,-4.7701,-4.7783,-4.7784,-4.7895,-4.7953,-4.8025,-4.8078,-4.8081,-4.8147,-4.8142,-4.817,-4.8187,-4.8286,-4.8321,-4.8274,-4.8443,-4.8407,-4.8419,-4.8416,-4.8428,-4.8437,-4.8425,-4.8251,0,0,0,0,0,-4.7716,-4.7789,-4.7857,-4.7947,-4.7977,-4.8023,-4.8066,-4.8081,-4.8142,-4.8166,-4.8212,-4.827,-4.8341,-4.8387,-4.8456,-4.8567,-4.8581,-4.8613,-4.8623,-4.863,-4.8639,-4.8699,-4.8713,-4.8561,-4.8561,-4.856,0,0,-4.7748,-4.7803,-4.7846,-4.7951,-4.7998,-4.8071,-4.8044,-4.8122,-4.8175,-4.8178,-4.8274,-4.8311,-4.8378,-4.8483,-4.8532,-4.8515,-4.8685,-4.8639,-4.8645,-4.865,-4.8707,-4.8722,-4.8734,-4.8565,-4.8565,-4.8564,0,0,-4.7844,-4.7893,-4.7974,-4.8022,-4.8094,-4.8125,-4.8144,-4.8217,-4.8241,-4.8339,-4.8342,-4.8407,-4.8529,-4.8576,-4.8616,-4.8732,-4.8728,-4.8754,-4.8801,-4.8859,-4.8871,-4.8881,-4.892,-4.8934,-4.8763,-4.8763,-4.8763,0,-4.7874,-4.7985,-4.8014,-4.8093,-4.8138,-4.8147,-4.8227,-4.8273,-4.8363,-4.8394,-4.8375,-4.8528,-4.8574,-4.869,-4.8718,-4.8751,-4.8773,-4.8743,-4.8867,-4.8878,-4.8888,-4.8925,-4.894,-4.8765,-4.8765,-4.8765,-4.8765,0,-4.8017,-4.8094,-4.815,-4.8239,-4.8291,-4.837,-4.8411,-4.846,-4.8472,-4.8504,-4.8604,-4.866,-4.8739,-4.8769,-4.8781,-4.8887,-4.8874,-4.8861,-4.8824,-4.8904,-4.894,-4.8954,-4.8769,-4.8768,-4.8767,-4.8767,0,0,-4.8119,-4.8225,-4.8245,-4.8285,-4.8367,-4.8426,-4.8506,-4.8585,-4.8626,-4.8689,-4.8755,-4.886,-4.8848,-4.8894,-4.8912,-4.8963,-4.9048,-4.8943,-4.8945,-4.8958,-4.9165,-4.9172,-4.9188,-4.9048,-4.9051,-4.9054,-4.9159,0,-4.8221,-4.8363,-4.8393,-4.8515,-4.8586,-4.8596,-4.8665,-4.8722,-4.8755,-4.8819,-4.8855,-4.8928,-4.8909,-4.8936,-4.8988,-4.9026,-4.9089,-4.902,-4.9107,-4.911,-4.9086,-4.9207,-4.9214,-4.931,-4.9173,-4.9175,-4.9177,0,-4.8357,-4.8424,-4.8554,-4.8626,-4.8657,-4.8719,-4.8794,-4.8856,-4.8921,-4.8941,-4.8993,-4.9006,-4.9088,-4.9051,-4.9163,-4.9116,-4.9154,-4.9179,-4.9183,-4.9189,-4.9145,-4.9212,-4.9342,-4.9355,-4.92,-4.9198,-4.9196,0,-4.8414,-4.8538,-4.8631,-4.8666,-4.8753,-4.8796,-4.8835,-4.8897,-4.8943,-4.9009,-4.9039,-4.9113,-4.9153,-4.921,-4.9242,-4.9213,-4.9352,-4.9318,-4.9369,-4.9368,-4.9394,-4.9391,-4.9527,-4.9425,-4.9425,-4.9424,-4.9424,0,-4.8522,-4.86,-4.8658,-4.8715,-4.8803,-4.8838,-4.8923,-4.8961,-4.9017,-4.908,-4.9095,-4.9154,-4.9195,-4.9259,-4.9285,-4.9373,-4.9392,-4.9409,-4.9414,-4.9406,-4.9403,-4.9428,-4.9421,-4.9428,-4.9427,-4.9427,-4.9426,0,-4.8599,-4.8642,-4.8744,-4.8819,-4.884,-4.8901,-4.8965,-4.902,-4.9055,-4.9135,-4.9156,-4.921,-4.9287,-4.9326,-4.9421,-4.9439,-4.9537,-4.954,-4.9515,-4.9516,-4.9564,-4.9558,-4.9718,-4.974,-4.9626,-4.9627,-4.9628,0,-4.8663,-4.8723,-4.8806,-4.885,-4.889,-4.8961,-4.9009,-4.9046,-4.9094,-4.9173,-4.9219,-4.9297,-4.9361,-4.9484,-4.953,-4.9604,-4.9606,-4.9658,-4.9617,-4.9606,-4.9603,-4.9598,-4.9603,-4.9663,-4.9664,-4.9665,-4.9666,0,-4.877,-4.8789,-4.8857,-4.8934,-4.899,-4.9052,-4.9112,-4.9148,-4.9194,-4.9248,-4.9328,-4.9378,-4.9477,-4.9553,-4.9631,-4.9669,-4.9674,-4.9679,-4.9694,-4.9684,-4.9666,-4.9673,-4.9531,-4.9674,-4.9673,-4.9673,-4.9672,-4.9672,-4.8841,-4.8894,-4.8961,-4.9037,-4.9087,-4.9143,-4.9199,-4.9241,-4.9309,-4.9392,-4.9411,-4.9494,-4.9558,-4.9663,-4.9704,-4.9769,-4.9758,-4.9781,-4.9786,-4.979,-4.979,-4.9659,-4.9784,-4.9784,-4.9784,-4.9784,-4.9783,0,-4.8946,-4.899,-4.906,-4.9145,-4.9204,-4.9208,-4.9275,-4.9324,-4.9398,-4.9458,-4.9522,-4.9613,-4.9688,-4.9742,-4.9818,-4.986,-4.9865,-4.9878,-4.9874,-4.9882,-4.9798,-4.9775,-4.9873,-4.9873,-4.9873,-4.9873,-4.9873,-4.9873,-4.9007,-4.9098,-4.9125,-4.9241,-4.9285,-4.9367,-4.9405,-4.9457,-4.9505,-4.9607,-4.967,-4.9706,-4.9763,-4.9844,-4.9912,-4.9926,-4.9952,-4.9966,-4.9979,-4.9898,-4.9888,-4.9879,-4.9858,-4.9972,-4.9972,-5.0057,-5.0058,-5.0059]},{"header":{"parameterUnit":"m.s-1","parameterCategory":1,"la1":30.2991,"la2":30.254,"lo1":-89.0895,"lo2":-89.0444,"dy":0.0017,"dx":0.0017,"nx":28,"ny":28,"refTime":"2024-03-14T09:00:00:Z","depth":0,"parameterNumber":3,"parameterNumberName":"V-component_of_WINDS"},"data":[0,0,0,0,0,0,0,0,0,0,0,0,0,0,0,0,0,0,0,0,0,0,0,0,0,0,0,0,0,0,0,0,0,0,0,0,0,0,0,0,0,0,0,0,0,0,0,0,0,0,0,0,0,0,0,0,0,0,1.3597,1.3599,0,1.3771,1.3773,1.3775,1.3874,1.3875,1.3875,1.3875,1.4051,1.4056,1.406,0,0,0,0,0,0,0,0,0,0,0,0,0,1.3348,1.3352,1.3597,1.3599,1.3601,1.3771,1.3773,1.3776,1.3874,1.3875,1.3875,1.3876,1.405,1.4055,1.406,0,0,0,0,0,0,0,0,0,0,0,0,0,1.3483,1.3354,1.3596,1.3671,1.3679,1.3771,1.3773,1.3776,1.3874,1.3875,1.3875,1.3876,1.4048,1.4055,1.4061,1.4091,0,0,1.4081,1.4084,0,0,0,0,0,0,0,0,1.3475,1.3492,1.3658,1.3666,1.3675,1.3802,1.3751,1.3882,1.3874,1.38,1.3875,1.3876,1.3968,1.3981,1.4012,1.4099,1.4107,1.4082,1.4086,1.4088,1.409,0,0,0,0,0,0,0,1.3466,1.3485,1.3666,1.366,1.3671,1.3695,1.3715,1.3776,1.3879,1.3807,1.3814,1.3834,1.3973,1.4006,1.4017,1.4109,1.4081,1.4087,1.4091,1.4094,1.4232,1.4231,0,0,0,0,0,0,1.3444,1.3476,1.366,1.3671,1.3575,1.3699,1.3721,1.3761,1.3878,1.3897,1.3833,1.3838,1.3994,1.401,1.4024,1.4068,1.4088,1.4095,1.4098,1.4232,1.4232,1.4231,0,0,0,0,0,0,1.3439,1.346,1.3653,1.3576,1.3602,1.3703,1.3746,1.3764,1.3797,1.3898,1.3917,1.3848,1.3995,1.4015,1.4074,1.4076,1.4097,1.4103,1.4232,1.4232,1.4232,1.4155,0,0,0,0,0,0,1.3431,1.3457,1.347,1.3575,1.3606,1.3701,1.3746,1.3767,1.3808,1.3816,1.3918,1.3935,1.3997,1.4064,1.4081,1.4085,1.4109,1.4233,1.4232,1.4232,1.4158,1.4153,1.4148,0,0,0,0,0,1.3422,1.344,1.347,1.3491,1.3624,1.37,1.3718,1.379,1.3808,1.3822,1.3887,1.3932,1.4073,1.4069,1.4089,1.4095,1.4233,1.4232,1.4232,1.4161,1.4154,1.4148,0,0,0,0,0,0,1.3331,1.3456,1.349,1.3543,1.361,1.3717,1.3736,1.378,1.3844,1.3848,1.3934,1.3957,1.4008,1.4058,1.4052,1.4131,1.4158,1.4161,1.4097,1.4091,1.4086,1.4073,1.4114,0,0,0,0,0,1.3317,1.337,1.3475,1.3512,1.3545,1.3634,1.367,1.3721,1.3794,1.3823,1.3892,1.3961,1.4021,1.4059,1.412,1.4166,1.419,1.418,1.4175,1.417,1.4172,1.4201,1.4198,1.4229,1.4229,1.4229,0,0,1.3289,1.3364,1.3391,1.3496,1.3554,1.3606,1.3658,1.371,1.375,1.383,1.3892,1.3945,1.4028,1.4081,1.4108,1.4124,1.4169,1.4169,1.4164,1.4169,1.42,1.4197,1.4195,1.4229,1.4229,1.4229,0,0,1.3265,1.3326,1.3364,1.3422,1.351,1.357,1.3579,1.368,1.3719,1.3782,1.3844,1.3892,1.3994,1.4051,1.4093,1.4092,1.4135,1.4109,1.4081,1.4109,1.4106,1.4105,1.4105,1.4104,1.411,1.411,1.411,0,1.3218,1.33,1.3378,1.3428,1.3473,1.3549,1.3589,1.3641,1.3744,1.3773,1.3789,1.392,1.3981,1.4049,1.4049,1.408,1.4094,1.4098,1.41,1.4099,1.4099,1.4101,1.41,1.4107,1.4107,1.4107,1.4108,0,1.3239,1.3295,1.3315,1.3414,1.3461,1.3505,1.359,1.3628,1.3675,1.3733,1.3796,1.3873,1.3951,1.3971,1.4016,1.4046,1.4054,1.4084,1.4112,1.4091,1.4094,1.4095,1.4101,1.4103,1.4104,1.4105,0,0,1.3161,1.3305,1.3311,1.3357,1.3461,1.3506,1.3554,1.3632,1.3663,1.3732,1.3774,1.3859,1.3889,1.3937,1.3989,1.4013,1.4009,1.4042,1.4045,1.4033,1.4049,1.4025,1.4025,1.4039,1.404,1.404,1.4042,0,1.3153,1.3244,1.3316,1.3379,1.3433,1.3507,1.3549,1.3617,1.3673,1.3726,1.3788,1.3847,1.3881,1.3911,1.3938,1.4004,1.4014,1.4005,1.408,1.4082,1.4057,1.4026,1.4002,1.4,1.4044,1.4044,1.4044,0,1.3154,1.3222,1.3291,1.3391,1.3416,1.3452,1.353,1.358,1.3659,1.3698,1.3752,1.3807,1.3862,1.3885,1.3961,1.3954,1.3989,1.4026,1.4028,1.4038,1.4061,1.4036,1.4001,1.4001,1.4046,1.4046,1.4046,0,1.3092,1.32,1.3256,1.3293,1.3411,1.3435,1.3485,1.3565,1.3607,1.3675,1.3704,1.3777,1.3817,1.3872,1.3945,1.3955,1.4014,1.4043,1.4049,1.4047,1.4058,1.4056,1.4028,1.4079,1.4079,1.4079,1.4079,0,1.3074,1.3114,1.3229,1.3263,1.331,1.3393,1.3437,1.3494,1.3564,1.3611,1.3679,1.3722,1.3816,1.3869,1.3927,1.3982,1.3999,1.4033,1.4048,1.4027,1.4023,1.4051,1.4053,1.4079,1.4079,1.4079,1.4079,0,1.3012,1.3091,1.3157,1.3263,1.3291,1.3321,1.3413,1.3449,1.3509,1.3567,1.3586,1.368,1.3747,1.3826,1.3918,1.3957,1.4007,1.4029,1.3981,1.3989,1.3991,1.3989,1.3981,1.3984,1.4031,1.403,1.403,0,1.2996,1.3029,1.3139,1.3176,1.3224,1.3282,1.3327,1.341,1.3453,1.3547,1.3572,1.3644,1.3707,1.381,1.3887,1.3958,1.3982,1.3974,1.3993,1.3972,1.3983,1.3981,1.3985,1.3969,1.3968,1.3967,1.3967,0,1.2959,1.2997,1.3059,1.3135,1.3186,1.325,1.3316,1.3342,1.3439,1.3484,1.3554,1.3602,1.3698,1.3769,1.385,1.3902,1.395,1.396,1.3965,1.3945,1.3916,1.3932,1.3967,1.396,1.3961,1.3961,1.3961,1.3962,1.2921,1.2954,1.3037,1.3104,1.3163,1.3224,1.3263,1.3329,1.3389,1.3474,1.352,1.3589,1.3669,1.3783,1.3833,1.3888,1.3905,1.3912,1.3914,1.3915,1.3909,1.3907,1.3903,1.3904,1.3904,1.3904,1.3904,0,1.2889,1.2946,1.3007,1.3098,1.3151,1.3194,1.327,1.3311,1.3371,1.3442,1.3502,1.3583,1.3653,1.3736,1.3811,1.384,1.3864,1.3857,1.3855,1.3867,1.3889,1.3878,1.3836,1.3836,1.3836,1.3836,1.3836,1.3836,1.2878,1.2936,1.2984,1.3073,1.3131,1.32,1.3239,1.3296,1.3353,1.3441,1.35,1.3554,1.363,1.3711,1.3777,1.38,1.3825,1.3811,1.384,1.3859,1.3865,1.3871,1.386,1.3815,1.3815,1.3813,1.3813,1.3813]}]]